Location: Bennemühlen
(52.5740°N, 9.7135°E)
Time: 00:57:53
(UTC+00:00)

Transit 2A Rocket - Visible Passes

Search period start: 07 February 2026 00:00
Search period end: 17 February 2026 00:00
Orbit: 581 x 902 km, 66.7° (Epoch: 6 February)

Date Brightness Start Highest point End Pass type
(mag) Time Alt. Az. Time Alt. Az. Time Alt. Az.
7 Feb 6.5 16:58:22 10° SSE 17:02:57 23° ESE 17:07:33 10° ENE visible
7 Feb 5.3 18:38:42 10° SW 18:44:46 89° NW 18:47:58 30° NE visible
7 Feb 6.8 20:22:32 10° W 20:27:41 32° NNW 20:27:41 32° NNW visible
8 Feb 5.3 17:53:14 10° SSW 17:59:10 63° ESE 18:04:07 15° NE visible
8 Feb 6.3 19:36:14 10° WSW 19:41:56 42° NW 19:43:51 33° N visible
8 Feb 7.7 21:21:17 10° WNW 21:23:34 18° NW 21:23:34 18° NW visible
9 Feb 5.8 17:08:07 10° S 17:13:41 41° ESE 17:19:16 10° NE visible
9 Feb 5.9 18:50:06 10° WSW 18:56:03 57° NW 18:59:54 22° NNE visible
9 Feb 7.1 20:34:47 10° WNW 20:39:37 25° NNW 20:39:37 25° NNW visible
10 Feb 5.4 18:04:14 10° SW 18:10:17 80° NW 18:15:51 12° NE visible
10 Feb 6.9 19:48:18 10° W 19:53:34 30° NNW 19:55:34 25° N visible
10 Feb 7.8 21:33:27 10° NW 21:35:16 16° NNW 21:35:16 16° NNW visible
11 Feb 5.4 17:18:39 10° SSW 17:24:39 71° SE 17:30:37 10° NE visible
11 Feb 6.5 19:01:55 10° WSW 19:07:32 38° NW 19:11:27 18° NNE visible
11 Feb 7.3 20:47:03 10° WNW 20:51:09 21° NNW 20:51:09 21° NNW visible
12 Feb 6.0 18:15:44 10° WSW 18:21:37 51° NW 18:27:15 11° NE visible
12 Feb 7.1 20:00:33 10° WNW 20:05:21 24° NNW 20:06:57 21° N visible
12 Feb 7.9 21:45:20 10° NW 21:46:39 14° NNW 21:46:39 14° NNW visible
13 Feb 5.6 17:29:46 10° SW 17:35:49 73° NW 17:41:47 10° NE visible
13 Feb 6.9 19:14:02 10° W 19:19:11 28° NNW 19:22:43 17° NNE visible
13 Feb 7.4 20:59:10 10° NW 21:02:24 19° NNW 21:02:24 19° NNW visible
14 Feb 6.6 18:27:37 10° W 18:33:08 35° NNW 18:38:26 10° NNE visible
14 Feb 7.2 20:12:48 10° NW 20:17:13 21° N 20:18:08 20° N visible
14 Feb 7.9 21:56:54 10° NW 21:57:50 13° NNW 21:57:50 13° NNW visible
15 Feb 6.2 17:41:22 10° WSW 17:47:11 47° NW 17:52:53 10° NE visible
15 Feb 7.2 19:26:18 10° WNW 19:30:59 23° NNW 19:33:49 16° NNE visible
15 Feb 7.5 21:10:58 10° NW 21:13:31 18° NNW 21:13:31 18° NNW visible
16 Feb 7.0 18:39:47 10° W 18:44:49 27° NNW 18:49:29 11° NNE visible
16 Feb 7.2 20:24:50 10° NW 20:29:07 20° N 20:29:10 20° N visible
16 Feb 8.0 22:08:13 10° NNW 22:08:52 13° NNW 22:08:52 13° NNW visible
